Location: Helion Bumpstead
(52.0500°N, 0.4000°E)
Time: 22:01:35
(UTC+00:00)

NOSS 3-2 (C) - Pass Details

Date: 15 November 2025
Orbit: 674 x 1535 km, 63.4° (Epoch: 13 November)

Event Time Altitude Azimuth Distance (km) Brightness Sun altitude
Exits shadow 06:33:53 - 314° (NW) 3,243 5.6 -7.0°
Reaches altitude 10° 06:34:52 10° 314° (NW) 2,902 5.4 -6.9°
Maximum altitude 06:41:56 87° 43° (NE) 1,249 4.1 -5.9°
Drops below altitude 10° 06:50:35 10° 135° (SE) 3,508 7.8 -4.7°
Sets 06:53:43 0° 136° (SE) 4,563 8.6 -4.2°
